[[{"header":{"parameterUnit":"m.s-1","parameterCategory":1,"la1":30.2991,"la2":30.254,"lo1":-89.0895,"lo2":-89.0444,"dy":0.0017,"dx":0.0017,"nx":28,"ny":28,"refTime":"2025-11-14T09:00:00:Z","depth":0,"parameterNumber":2,"parameterNumberName":"U-component_of_WINDS"},"data":[0,0,0,0,0,0,0,0,0,0,0,0,0,0,0,0,0,0,0,0,0,0,0,0,0,0,0,0,0,0,0,0,0,0,0,0,0,0,0,0,0,0,0,0,0,0,0,0,0,0,0,0,0,0,0,0,0,0,0.0315,0.0316,0,0.0345,0.0345,0.0346,0.0364,0.0364,0.0364,0.0364,0.0394,0.0394,0.0395,0,0,0,0,0,0,0,0,0,0,0,0,0,0.0272,0.0273,0.0315,0.0316,0.0316,0.0345,0.0345,0.0346,0.0364,0.0364,0.0364,0.0364,0.0393,0.0394,0.0395,0,0,0,0,0,0,0,0,0,0,0,0,0,0.0295,0.0273,0.0315,0.0328,0.033,0.0345,0.0345,0.0346,0.0364,0.0364,0.0364,0.0364,0.0393,0.0394,0.0395,0.0399,0,0,0.0399,0.0399,0,0,0,0,0,0,0,0,0.0294,0.0297,0.0326,0.0328,0.0329,0.0351,0.0341,0.0364,0.0363,0.0351,0.0364,0.0364,0.0379,0.0381,0.0387,0.0401,0.0402,0.0399,0.0399,0.04,0.04,0,0,0,0,0,0,0,0.0292,0.0296,0.0327,0.0326,0.0328,0.0332,0.0336,0.0345,0.0364,0.0352,0.0353,0.0357,0.038,0.0386,0.0388,0.0402,0.0399,0.04,0.04,0.0401,0.0419,0.0419,0,0,0,0,0,0,0.0289,0.0294,0.0326,0.0328,0.0312,0.0333,0.0337,0.0344,0.0364,0.0367,0.0356,0.0357,0.0384,0.0386,0.0389,0.0393,0.04,0.0401,0.0401,0.0419,0.0419,0.0419,0,0,0,0,0,0,0.0288,0.0291,0.0325,0.0311,0.0316,0.0333,0.0341,0.0344,0.035,0.0367,0.037,0.0359,0.0384,0.0387,0.0396,0.0395,0.0401,0.0402,0.0419,0.0419,0.0419,0.0404,0,0,0,0,0,0,0.0286,0.0291,0.0293,0.0311,0.0317,0.0332,0.0341,0.0345,0.0352,0.0353,0.037,0.0373,0.0384,0.0394,0.0397,0.0396,0.0403,0.0419,0.0419,0.0419,0.0404,0.0403,0.0402,0,0,0,0,0,0.0285,0.0288,0.0293,0.0297,0.032,0.0332,0.0335,0.0348,0.0352,0.0353,0.0364,0.0373,0.0394,0.0395,0.0398,0.0398,0.0419,0.0419,0.0419,0.0405,0.0403,0.0402,0,0,0,0,0,0,0.027,0.0291,0.0297,0.0306,0.0317,0.0335,0.0338,0.0346,0.0356,0.0357,0.0372,0.0376,0.0383,0.0391,0.0392,0.0402,0.0408,0.0408,0.0396,0.0395,0.0393,0.0391,0.0404,0,0,0,0,0,0.0268,0.0277,0.0294,0.0301,0.0306,0.0321,0.0327,0.0336,0.0348,0.0352,0.0364,0.0375,0.0384,0.039,0.0399,0.0405,0.0409,0.0406,0.0405,0.0404,0.0404,0.0406,0.0405,0.0417,0.0417,0.0417,0,0,0.0264,0.0276,0.0281,0.0298,0.0308,0.0315,0.0325,0.0333,0.0339,0.0354,0.0362,0.0371,0.0384,0.0391,0.0395,0.0398,0.0401,0.0403,0.0402,0.0403,0.0405,0.0404,0.0403,0.0417,0.0417,0.0417,0,0,0.026,0.027,0.0276,0.0285,0.0299,0.0309,0.031,0.0327,0.0333,0.0342,0.0352,0.0359,0.0375,0.0383,0.0389,0.0386,0.0393,0.0388,0.0381,0.0383,0.0382,0.0381,0.0379,0.0378,0.0388,0.0388,0.0388,0,0.0253,0.0265,0.0278,0.0285,0.0292,0.0305,0.031,0.0318,0.0335,0.0338,0.0342,0.0361,0.0371,0.0379,0.0378,0.0383,0.0384,0.0387,0.0381,0.0381,0.038,0.0378,0.0377,0.0387,0.0388,0.0388,0.0388,0,0.0255,0.0263,0.0266,0.0281,0.0288,0.0294,0.0307,0.0313,0.032,0.0329,0.0337,0.0349,0.036,0.0362,0.037,0.0371,0.0373,0.0379,0.0385,0.0378,0.0376,0.0375,0.0386,0.0387,0.0387,0.0387,0,0,0.0244,0.0265,0.0265,0.0271,0.0287,0.0293,0.0299,0.031,0.0313,0.0324,0.0328,0.034,0.0345,0.0352,0.036,0.0362,0.0357,0.0368,0.0368,0.0364,0.0357,0.0352,0.0351,0.0362,0.0362,0.0361,0.0355,0,0.0242,0.0254,0.0265,0.0272,0.0279,0.029,0.0295,0.0304,0.0312,0.0319,0.0327,0.0335,0.0342,0.0346,0.0348,0.0357,0.0355,0.0358,0.0365,0.0365,0.0361,0.035,0.0345,0.0339,0.0355,0.0355,0.0355,0,0.0242,0.0251,0.0258,0.0271,0.0274,0.0279,0.0288,0.0295,0.0305,0.031,0.0317,0.0325,0.0331,0.0336,0.0343,0.0344,0.0348,0.0353,0.0353,0.0354,0.0359,0.035,0.0338,0.0336,0.0354,0.0354,0.0354,0,0.0232,0.0246,0.0252,0.0257,0.0272,0.0274,0.0281,0.0291,0.0296,0.0304,0.0307,0.0316,0.032,0.0326,0.0336,0.0339,0.0341,0.0348,0.0345,0.0345,0.0345,0.0345,0.0333,0.0348,0.0348,0.0348,0.0349,0,0.0228,0.0232,0.0247,0.0251,0.0255,0.0267,0.027,0.0278,0.0286,0.0291,0.0301,0.0305,0.0318,0.0323,0.0331,0.0334,0.0337,0.0341,0.0342,0.0339,0.0339,0.0342,0.0342,0.0348,0.0348,0.0348,0.0348,0,0.0218,0.0228,0.0235,0.0248,0.0252,0.0254,0.0265,0.0268,0.0276,0.0281,0.0283,0.0295,0.0302,0.0312,0.0322,0.0327,0.0329,0.0332,0.0325,0.0326,0.0322,0.0322,0.0311,0.031,0.0327,0.0327,0.0326,0,0.0215,0.0218,0.0231,0.0235,0.024,0.0246,0.0251,0.0262,0.0266,0.0276,0.0278,0.0285,0.0291,0.03,0.031,0.0316,0.032,0.0315,0.0321,0.0317,0.0318,0.0318,0.0318,0.0314,0.0314,0.0314,0.0313,0,0.0208,0.0212,0.0219,0.0226,0.0231,0.0238,0.0245,0.0247,0.0259,0.0263,0.027,0.0274,0.0283,0.0289,0.0297,0.0303,0.0309,0.0311,0.0311,0.0308,0.0303,0.0304,0.0321,0.0312,0.0312,0.0312,0.0312,0.0312,0.0201,0.0204,0.0212,0.0219,0.0225,0.023,0.0234,0.0241,0.0246,0.0254,0.026,0.0265,0.0273,0.0284,0.0289,0.0293,0.0296,0.0296,0.0296,0.0295,0.0293,0.0302,0.0294,0.0294,0.0294,0.0294,0.0295,0,0.0194,0.02,0.0205,0.0214,0.0218,0.0224,0.0231,0.0234,0.0239,0.0245,0.0251,0.0257,0.0262,0.0271,0.0277,0.0278,0.0281,0.0279,0.0279,0.028,0.0291,0.029,0.0276,0.0276,0.0276,0.0276,0.0276,0.0276,0.0191,0.0195,0.02,0.0206,0.0212,0.0217,0.022,0.0225,0.023,0.0236,0.0241,0.0246,0.0253,0.0259,0.0264,0.0266,0.0268,0.0264,0.0267,0.0278,0.0279,0.0281,0.028,0.0265,0.0265,0.0256,0.0256,0.0256]},{"header":{"parameterUnit":"m.s-1","parameterCategory":1,"la1":30.2991,"la2":30.254,"lo1":-89.0895,"lo2":-89.0444,"dy":0.0017,"dx":0.0017,"nx":28,"ny":28,"refTime":"2025-11-14T09:00:00:Z","depth":0,"parameterNumber":3,"parameterNumberName":"V-component_of_WINDS"},"data":[0,0,0,0,0,0,0,0,0,0,0,0,0,0,0,0,0,0,0,0,0,0,0,0,0,0,0,0,0,0,0,0,0,0,0,0,0,0,0,0,0,0,0,0,0,0,0,0,0,0,0,0,0,0,0,0,0,0,2.1478,2.1478,0,2.1484,2.1484,2.1484,2.1482,2.1481,2.1481,2.1481,2.1487,2.1487,2.1488,0,0,0,0,0,0,0,0,0,0,0,0,0,2.1462,2.1463,2.1478,2.1478,2.1478,2.1484,2.1484,2.1484,2.1482,2.1481,2.1481,2.1481,2.1487,2.1487,2.1488,0,0,0,0,0,0,0,0,0,0,0,0,0,2.1469,2.1463,2.1478,2.1477,2.1477,2.1484,2.1484,2.1484,2.1482,2.1481,2.1481,2.1481,2.1487,2.1487,2.1488,2.1495,0,0,2.1489,2.1489,0,0,0,0,0,0,0,0,2.1468,2.1469,2.1477,2.1477,2.1477,2.1482,2.1481,2.1488,2.1482,2.148,2.1481,2.1481,2.1486,2.1486,2.1488,2.1496,2.1496,2.1489,2.149,2.149,2.149,0,0,0,0,0,0,0,2.1468,2.1469,2.148,2.1477,2.1477,2.1476,2.1477,2.1482,2.1484,2.148,2.148,2.1481,2.1485,2.1487,2.1488,2.1496,2.1489,2.149,2.149,2.149,2.151,2.1511,0,0,0,0,0,0,2.1468,2.1469,2.148,2.148,2.1472,2.1477,2.1478,2.1481,2.1484,2.1484,2.1481,2.1481,2.1487,2.1487,2.1488,2.1497,2.149,2.149,2.149,2.151,2.151,2.1511,0,0,0,0,0,0,2.1467,2.1469,2.148,2.1474,2.1476,2.1477,2.1481,2.1481,2.1483,2.1485,2.1485,2.1483,2.1487,2.1487,2.1494,2.1497,2.149,2.1491,2.151,2.151,2.1511,2.1515,0,0,0,0,0,0,2.1467,2.1469,2.1471,2.1475,2.1476,2.1485,2.1481,2.1481,2.1484,2.1483,2.1486,2.1486,2.1486,2.1493,2.1494,2.1498,2.1491,2.1509,2.151,2.151,2.1514,2.1515,2.1516,0,0,0,0,0,2.1466,2.1472,2.1472,2.1473,2.148,2.1485,2.1486,2.1486,2.1484,2.1487,2.1488,2.1486,2.1497,2.1494,2.1495,2.1499,2.1509,2.151,2.151,2.1514,2.1515,2.1516,0,0,0,0,0,0,2.1469,2.1473,2.1472,2.1479,2.1482,2.1485,2.1488,2.1488,2.1491,2.149,2.149,2.1491,2.1497,2.1499,2.1495,2.1506,2.1503,2.1503,2.1505,2.1506,2.1507,2.1506,2.1492,0,0,0,0,0,2.1471,2.1475,2.1478,2.1484,2.1485,2.1487,2.1489,2.1489,2.1492,2.1493,2.1495,2.1497,2.1501,2.1504,2.1508,2.1515,2.1515,2.1518,2.1519,2.152,2.152,2.1524,2.1525,2.1513,2.1513,2.1513,0,0,2.1474,2.1476,2.1479,2.1484,2.1487,2.1491,2.1488,2.1492,2.1496,2.1494,2.1499,2.1501,2.1504,2.1511,2.1514,2.1512,2.1524,2.152,2.1521,2.1521,2.1525,2.1526,2.1527,2.1513,2.1513,2.1513,0,0,2.1481,2.1484,2.1489,2.1491,2.1495,2.1496,2.1497,2.15,2.1501,2.1507,2.1506,2.151,2.1517,2.1519,2.1521,2.153,2.1528,2.1531,2.1535,2.1539,2.154,2.1541,2.1544,2.1545,2.1532,2.1532,2.1532,0,2.1484,2.1491,2.1492,2.1497,2.1499,2.1498,2.1503,2.1506,2.151,2.1512,2.151,2.1518,2.152,2.1528,2.153,2.1532,2.1533,2.153,2.154,2.1541,2.1542,2.1544,2.1546,2.1532,2.1532,2.1532,2.1532,0,2.1494,2.1499,2.1503,2.1508,2.1511,2.1516,2.1517,2.152,2.152,2.1521,2.1527,2.153,2.1534,2.1536,2.1536,2.1543,2.1542,2.154,2.1536,2.1543,2.1546,2.1547,2.1532,2.1532,2.1532,2.1532,0,0,2.1503,2.1509,2.151,2.1512,2.1516,2.152,2.1525,2.1529,2.1532,2.1535,2.1539,2.1545,2.1544,2.1546,2.1546,2.155,2.1556,2.1547,2.1547,2.1549,2.1564,2.1565,2.1566,2.1556,2.1556,2.1556,2.1564,0,2.1511,2.152,2.1521,2.1529,2.1533,2.1533,2.1537,2.154,2.1541,2.1545,2.1547,2.1551,2.1549,2.155,2.1553,2.1555,2.1559,2.1554,2.1559,2.1559,2.1558,2.1568,2.1569,2.1576,2.1565,2.1565,2.1565,0,2.1521,2.1525,2.1533,2.1537,2.1539,2.1543,2.1547,2.1551,2.1554,2.1555,2.1558,2.1557,2.1562,2.1559,2.1566,2.1563,2.1565,2.1566,2.1566,2.1566,2.1562,2.1568,2.1578,2.1579,2.1567,2.1567,2.1567,0,2.1526,2.1533,2.1539,2.1541,2.1546,2.1549,2.1551,2.1554,2.1556,2.156,2.1562,2.1566,2.1568,2.1571,2.1572,2.157,2.1579,2.1576,2.158,2.158,2.1581,2.1581,2.1592,2.1583,2.1583,2.1583,2.1583,0,2.1534,2.1539,2.1542,2.1545,2.1551,2.1552,2.1558,2.156,2.1563,2.1567,2.1567,2.157,2.1571,2.1575,2.1576,2.1581,2.1583,2.1583,2.1583,2.1583,2.1583,2.1584,2.1583,2.1584,2.1584,2.1584,2.1583,0,2.154,2.1542,2.1549,2.1553,2.1554,2.1558,2.1561,2.1565,2.1566,2.1571,2.1573,2.1575,2.1579,2.1581,2.1586,2.1587,2.1593,2.1593,2.1592,2.1592,2.1595,2.1595,2.1607,2.1608,2.1599,2.16,2.16,0,2.1545,2.1549,2.1553,2.1556,2.1558,2.1563,2.1566,2.1567,2.157,2.1574,2.1577,2.1582,2.1586,2.1593,2.1595,2.1599,2.1599,2.1603,2.1599,2.1599,2.1598,2.1598,2.1598,2.1603,2.1603,2.1603,2.1603,0,2.1553,2.1554,2.1558,2.1563,2.1566,2.157,2.1573,2.1575,2.1578,2.1581,2.1586,2.1589,2.1594,2.1599,2.1603,2.1605,2.1604,2.1605,2.1606,2.1605,2.1604,2.1604,2.1593,2.1604,2.1604,2.1604,2.1604,2.1604,2.1558,2.1562,2.1565,2.157,2.1573,2.1577,2.158,2.1582,2.1586,2.1591,2.1592,2.1597,2.1601,2.1607,2.1609,2.1613,2.1611,2.1613,2.1613,2.1613,2.1614,2.1604,2.1613,2.1613,2.1613,2.1613,2.1613,0,2.1566,2.1568,2.1573,2.1578,2.1582,2.1581,2.1585,2.1588,2.1593,2.1597,2.16,2.1606,2.161,2.1613,2.1617,2.162,2.162,2.1621,2.1621,2.1621,2.1615,2.1613,2.1621,2.1621,2.1621,2.1621,2.1621,2.1621,2.157,2.1576,2.1578,2.1585,2.1588,2.1593,2.1595,2.1598,2.1601,2.1607,2.1611,2.1613,2.1616,2.1621,2.1625,2.1625,2.1627,2.1628,2.1629,2.1622,2.1621,2.1621,2.1619,2.1628,2.1629,2.1635,2.1635,2.1635]}]]